contact:dominique.lefevre@mio.osupytheas.fr, maurice.libes@osupytheas.fr, didier.mallarino@osupytheas.fr
Project:EMSO http://www.emso-fr.org/EMSO-France
Depth: 2436.0 m
Title:EMSO Ligure Ouest : Data MII capteur MICROCAT
DateTime_Computer,Latitude,Longitude,Temperature,Conductivity,Pressure,DateTime_Instrument
DateTime_Computer,Latitude,Longitude,degC,S m-1,dbar,DateTime_Instrument
2017-12-10T00:01:05Z,42.805,6.029,13.2933,4.59956,2472.002,2017-12-10T02:02:35Z
2017-12-10T00:04:08Z,42.805,6.029,13.2935,4.59957,2471.979,2017-12-10T02:05:38Z
2017-12-10T00:07:11Z,42.805,6.029,13.2935,4.59956,2472.002,2017-12-10T02:08:40Z
2017-12-10T00:10:14Z,42.805,6.029,13.2939,4.59961,2472.002,2017-12-10T02:11:43Z
2017-12-10T00:13:17Z,42.805,6.029,13.2938,4.59960,2471.964,2017-12-10T02:14:46Z
2017-12-10T00:16:20Z,42.805,6.029,13.2936,4.59958,2472.024,2017-12-10T02:17:49Z
2017-12-10T00:19:23Z,42.805,6.029,13.2938,4.59955,2471.987,2017-12-10T02:20:52Z
2017-12-10T00:22:25Z,42.805,6.029,13.2938,4.59964,2471.987,2017-12-10T02:23:55Z
2017-12-10T00:25:28Z,42.805,6.029,13.2934,4.59956,2472.002,2017-12-10T02:26:58Z
2017-12-10T00:28:31Z,42.805,6.029,13.2938,4.59961,2472.01,2017-12-10T02:30:01Z
2017-12-10T00:31:34Z,42.805,6.029,13.2938,4.59956,2471.987,2017-12-10T02:33:04Z
2017-12-10T00:34:37Z,42.805,6.029,13.2935,4.59958,2472.002,2017-12-10T02:36:06Z
2017-12-10T00:37:40Z,42.805,6.029,13.2935,4.59955,2471.987,2017-12-10T02:39:09Z
2017-12-10T00:40:43Z,42.805,6.029,13.2937,4.59955,2471.979,2017-12-10T02:42:12Z
2017-12-10T00:43:46Z,42.805,6.029,13.2945,4.59956,2472.002,2017-12-10T02:45:15Z
2017-12-10T00:46:49Z,42.805,6.029,13.2939,4.59954,2472.01,2017-12-10T02:48:18Z
2017-12-10T00:49:51Z,42.805,6.029,13.2940,4.59961,2471.964,2017-12-10T02:51:21Z
2017-12-10T00:52:54Z,42.805,6.029,13.2937,4.59958,2472.002,2017-12-10T02:54:24Z
2017-12-10T00:55:57Z,42.805,6.029,13.2939,4.59961,2471.979,2017-12-10T02:57:27Z
2017-12-10T00:59:00Z,42.805,6.029,13.2940,4.59955,2471.979,2017-12-10T03:00:30Z
2017-12-10T01:02:03Z,42.805,6.029,13.2944,4.59954,2472.024,2017-12-10T03:03:32Z
2017-12-10T01:05:06Z,42.805,6.029,13.2937,4.59959,2472.002,2017-12-10T03:06:35Z
2017-12-10T01:08:09Z,42.805,6.029,13.2935,4.59956,2472.024,2017-12-10T03:09:38Z
2017-12-10T01:11:12Z,42.805,6.029,13.2936,4.59955,2471.964,2017-12-10T03:12:41Z
2017-12-10T01:14:15Z,42.805,6.029,13.2944,4.59963,2471.979,2017-12-10T03:15:44Z
2017-12-10T01:17:17Z,42.805,6.029,13.2937,4.59954,2471.964,2017-12-10T03:18:47Z
2017-12-10T01:20:20Z,42.805,6.029,13.2941,4.59958,2471.957,2017-12-10T03:21:50Z
2017-12-10T01:23:23Z,42.805,6.029,13.2938,4.59956,2472.002,2017-12-10T03:24:53Z
2017-12-10T01:26:26Z,42.805,6.029,13.2935,4.59955,2472.002,2017-12-10T03:27:56Z
2017-12-10T01:29:29Z,42.805,6.029,13.2938,4.59958,2472.002,2017-12-10T03:30:58Z
2017-12-10T01:32:32Z,42.805,6.029,13.2937,4.59958,2471.979,2017-12-10T03:34:01Z
2017-12-10T01:35:35Z,42.805,6.029,13.2937,4.59958,2472.024,2017-12-10T03:37:04Z
2017-12-10T01:38:38Z,42.805,6.029,13.2939,4.59955,2471.964,2017-12-10T03:40:07Z
2017-12-10T01:41:41Z,42.805,6.029,13.2934,4.59956,2471.964,2017-12-10T03:43:10Z
2017-12-10T01:44:43Z,42.805,6.029,13.2939,4.59956,2472.002,2017-12-10T03:46:13Z
2017-12-10T01:47:46Z,42.805,6.029,13.2937,4.59958,2472.002,2017-12-10T03:49:16Z
2017-12-10T01:50:49Z,42.805,6.029,13.2935,4.59956,2471.964,2017-12-10T03:52:19Z
2017-12-10T01:53:52Z,42.805,6.029,13.2936,4.59957,2472.002,2017-12-10T03:55:22Z
2017-12-10T01:56:55Z,42.805,6.029,13.2937,4.59965,2471.979,2017-12-10T03:58:25Z
2017-12-10T01:59:58Z,42.805,6.029,13.2939,4.59958,2471.964,2017-12-10T04:01:27Z
2017-12-10T02:03:01Z,42.805,6.029,13.2941,4.59956,2471.987,2017-12-10T04:04:30Z
2017-12-10T02:06:04Z,42.805,6.029,13.2936,4.59956,2471.942,2017-12-10T04:07:33Z
2017-12-10T02:09:07Z,42.805,6.029,13.2938,4.59958,2471.942,2017-12-10T04:10:36Z
2017-12-10T02:12:09Z,42.805,6.029,13.2937,4.59961,2471.942,2017-12-10T04:13:39Z
2017-12-10T02:15:12Z,42.805,6.029,13.2936,4.59956,2471.957,2017-12-10T04:16:42Z
2017-12-10T02:18:15Z,42.805,6.029,13.2935,4.59958,2471.942,2017-12-10T04:19:45Z
2017-12-10T02:21:18Z,42.805,6.029,13.2935,4.59957,2471.964,2017-12-10T04:22:48Z
2017-12-10T02:24:21Z,42.805,6.029,13.2935,4.59958,2471.942,2017-12-10T04:25:51Z
2017-12-10T02:27:24Z,42.805,6.029,13.2935,4.59958,2471.942,2017-12-10T04:28:53Z
2017-12-10T02:30:27Z,42.805,6.029,13.2940,4.59962,2471.964,2017-12-10T04:31:56Z
2017-12-10T02:33:30Z,42.805,6.029,13.2934,4.59958,2471.942,2017-12-10T04:34:59Z
2017-12-10T02:36:33Z,42.805,6.029,13.2939,4.59968,2471.979,2017-12-10T04:38:02Z
2017-12-10T02:39:35Z,42.805,6.029,13.2936,4.59967,2471.964,2017-12-10T04:41:05Z
2017-12-10T02:42:38Z,42.805,6.029,13.2936,4.59968,2471.979,2017-12-10T04:44:08Z
2017-12-10T02:45:41Z,42.805,6.029,13.2937,4.59961,2471.979,2017-12-10T04:47:11Z
2017-12-10T02:48:44Z,42.805,6.029,13.2937,4.59958,2471.979,2017-12-10T04:50:14Z
2017-12-10T02:51:47Z,42.805,6.029,13.2937,4.59967,2471.942,2017-12-10T04:53:17Z
2017-12-10T02:54:50Z,42.805,6.029,13.2939,4.59964,2471.942,2017-12-10T04:56:19Z
2017-12-10T02:57:53Z,42.805,6.029,13.2934,4.59965,2471.919,2017-12-10T04:59:22Z
2017-12-10T03:00:56Z,42.805,6.029,13.2938,4.59967,2471.934,2017-12-10T05:02:25Z
2017-12-10T03:03:59Z,42.805,6.029,13.2934,4.59963,2471.942,2017-12-10T05:05:28Z
2017-12-10T03:07:02Z,42.805,6.029,13.2939,4.59963,2471.979,2017-12-10T05:08:31Z
2017-12-10T03:10:04Z,42.805,6.029,13.2934,4.59958,2471.957,2017-12-10T05:11:34Z
2017-12-10T03:13:07Z,42.805,6.029,13.2935,4.59958,2471.957,2017-12-10T05:14:37Z
2017-12-10T03:16:10Z,42.805,6.029,13.2935,4.59958,2471.957,2017-12-10T05:17:40Z
2017-12-10T03:19:13Z,42.805,6.029,13.2934,4.59959,2471.979,2017-12-10T05:20:43Z
2017-12-10T03:22:16Z,42.805,6.029,13.2939,4.59970,2471.964,2017-12-10T05:23:45Z
2017-12-10T03:25:19Z,42.805,6.029,13.2943,4.59965,2471.934,2017-12-10T05:26:48Z
2017-12-10T03:28:22Z,42.805,6.029,13.2941,4.59974,2471.979,2017-12-10T05:29:51Z
2017-12-10T03:31:25Z,42.805,6.029,13.2937,4.59964,2471.957,2017-12-10T05:32:54Z
2017-12-10T03:34:28Z,42.805,6.029,13.2939,4.59970,2471.957,2017-12-10T05:35:57Z
2017-12-10T03:37:30Z,42.805,6.029,13.2936,4.59968,2471.912,2017-12-10T05:39:00Z
2017-12-10T03:40:33Z,42.805,6.029,13.2935,4.59975,2471.979,2017-12-10T05:42:03Z
2017-12-10T03:43:36Z,42.805,6.029,13.2935,4.59984,2471.979,2017-12-10T05:45:06Z
2017-12-10T03:46:39Z,42.805,6.029,13.2937,4.59967,2471.979,2017-12-10T05:48:09Z
2017-12-10T03:49:42Z,42.805,6.029,13.2942,4.60000,2471.957,2017-12-10T05:51:12Z
2017-12-10T03:52:45Z,42.805,6.029,13.2937,4.60003,2471.957,2017-12-10T05:54:14Z
2017-12-10T03:55:48Z,42.805,6.029,13.2939,4.59988,2471.957,2017-12-10T05:57:17Z
2017-12-10T03:58:51Z,42.805,6.029,13.2937,4.59979,2471.979,2017-12-10T06:00:20Z
2017-12-10T04:01:54Z,42.805,6.029,13.2937,4.59994,2471.964,2017-12-10T06:03:23Z
2017-12-10T04:04:56Z,42.805,6.029,13.2938,4.60009,2471.934,2017-12-10T06:06:26Z
2017-12-10T04:07:59Z,42.805,6.029,13.2940,4.60001,2471.957,2017-12-10T06:09:29Z
2017-12-10T04:11:02Z,42.805,6.029,13.2937,4.59977,2471.957,2017-12-10T06:12:32Z
2017-12-10T04:14:05Z,42.805,6.029,13.2936,4.60002,2471.919,2017-12-10T06:15:35Z
2017-12-10T04:17:08Z,42.805,6.029,13.2935,4.59983,2471.912,2017-12-10T06:18:38Z
2017-12-10T04:20:11Z,42.805,6.029,13.2935,4.59985,2471.957,2017-12-10T06:21:40Z
2017-12-10T04:23:14Z,42.805,6.029,13.2936,4.59992,2471.957,2017-12-10T06:24:43Z
2017-12-10T04:26:17Z,42.805,6.029,13.2935,4.59983,2471.957,2017-12-10T06:27:46Z
2017-12-10T04:29:20Z,42.805,6.029,13.2956,4.59992,2471.912,2017-12-10T06:30:49Z
2017-12-10T04:32:23Z,42.805,6.029,13.2962,4.59971,2471.934,2017-12-10T06:33:52Z
2017-12-10T04:35:25Z,42.805,6.029,13.2985,4.59966,2471.919,2017-12-10T06:36:55Z
2017-12-10T04:38:28Z,42.805,6.029,13.2968,4.59983,2471.919,2017-12-10T06:39:58Z
2017-12-10T04:41:31Z,42.805,6.029,13.2955,4.60044,2471.934,2017-12-10T06:43:01Z
2017-12-10T04:44:34Z,42.805,6.029,13.2963,4.59998,2471.919,2017-12-10T06:46:04Z
2017-12-10T04:47:37Z,42.805,6.029,13.2966,4.59993,2471.934,2017-12-10T06:49:06Z
2017-12-10T04:50:40Z,42.805,6.029,13.2979,4.59988,2471.934,2017-12-10T06:52:09Z
2017-12-10T04:53:43Z,42.805,6.029,13.2950,4.60059,2471.934,2017-12-10T06:55:12Z
2017-12-10T04:56:46Z,42.805,6.029,13.2964,4.60079,2471.934,2017-12-10T06:58:15Z
2017-12-10T04:59:49Z,42.805,6.029,13.2978,4.60049,2471.934,2017-12-10T07:01:18Z
2017-12-10T05:02:51Z,42.805,6.029,13.2986,4.60052,2471.912,2017-12-10T07:04:21Z
2017-12-10T05:05:54Z,42.805,6.029,13.2989,4.60091,2471.942,2017-12-10T07:07:24Z
2017-12-10T05:08:57Z,42.805,6.029,13.2994,4.60045,2471.912,2017-12-10T07:10:27Z
2017-12-10T05:12:00Z,42.805,6.029,13.2991,4.60063,2471.934,2017-12-10T07:13:30Z
2017-12-10T05:15:03Z,42.805,6.029,13.3002,4.60027,2471.912,2017-12-10T07:16:32Z
2017-12-10T05:18:06Z,42.805,6.029,13.3014,4.60004,2471.912,2017-12-10T07:19:35Z
2017-12-10T05:21:09Z,42.805,6.029,13.3023,4.60106,2471.934,2017-12-10T07:22:38Z
2017-12-10T05:24:12Z,42.805,6.029,13.2981,4.60021,2471.934,2017-12-10T07:25:41Z
2017-12-10T05:27:15Z,42.805,6.029,13.3000,4.60016,2471.912,2017-12-10T07:28:44Z
2017-12-10T05:30:17Z,42.805,6.029,13.3020,4.59998,2471.912,2017-12-10T07:31:47Z
2017-12-10T05:33:20Z,42.805,6.029,13.3016,4.60018,2471.934,2017-12-10T07:34:50Z
2017-12-10T05:36:23Z,42.805,6.029,13.3004,4.60003,2471.942,2017-12-10T07:37:53Z
2017-12-10T05:39:26Z,42.805,6.029,13.2970,4.60000,2471.957,2017-12-10T07:40:56Z
2017-12-10T05:42:29Z,42.805,6.029,13.2983,4.59983,2471.942,2017-12-10T07:43:59Z
2017-12-10T05:45:32Z,42.805,6.029,13.2970,4.60007,2471.934,2017-12-10T07:47:01Z
2017-12-10T05:48:35Z,42.805,6.029,13.2990,4.60005,2471.957,2017-12-10T07:50:04Z
2017-12-10T05:51:38Z,42.805,6.029,13.2960,4.60001,2471.919,2017-12-10T07:53:07Z
2017-12-10T05:54:41Z,42.805,6.029,13.2959,4.60013,2471.934,2017-12-10T07:56:10Z
2017-12-10T05:57:43Z,42.805,6.029,13.2977,4.59997,2471.934,2017-12-10T07:59:13Z
2017-12-10T06:00:46Z,42.805,6.029,13.2970,4.59987,2471.934,2017-12-10T08:02:16Z
2017-12-10T06:03:49Z,42.805,6.029,13.2981,4.59975,2471.912,2017-12-10T08:05:19Z
2017-12-10T06:06:52Z,42.805,6.029,13.2978,4.59981,2471.934,2017-12-10T08:08:22Z
2017-12-10T06:09:55Z,42.805,6.029,13.2975,4.59986,2471.889,2017-12-10T08:11:25Z
2017-12-10T06:12:58Z,42.805,6.029,13.2961,4.59994,2471.912,2017-12-10T08:14:27Z
2017-12-10T06:16:01Z,42.805,6.029,13.2950,4.60021,2471.934,2017-12-10T08:17:30Z
2017-12-10T06:19:04Z,42.805,6.029,13.3027,4.59994,2471.897,2017-12-10T08:20:33Z
2017-12-10T06:22:07Z,42.805,6.029,13.2971,4.59987,2471.934,2017-12-10T08:23:36Z
2017-12-10T06:25:10Z,42.805,6.029,13.2961,4.59985,2471.919,2017-12-10T08:26:39Z
2017-12-10T06:28:12Z,42.805,6.029,13.2973,4.59995,2471.912,2017-12-10T08:29:42Z
2017-12-10T06:31:15Z,42.805,6.029,13.2968,4.60005,2471.912,2017-12-10T08:32:45Z
2017-12-10T06:34:18Z,42.805,6.029,13.2964,4.59979,2471.934,2017-12-10T08:35:48Z
2017-12-10T06:37:21Z,42.805,6.029,13.2991,4.59990,2471.897,2017-12-10T08:38:51Z
2017-12-10T06:40:24Z,42.805,6.029,13.2975,4.59992,2471.912,2017-12-10T08:41:54Z
2017-12-10T06:43:27Z,42.805,6.029,13.2986,4.60000,2471.912,2017-12-10T08:44:56Z
2017-12-10T06:46:30Z,42.805,6.029,13.2985,4.60028,2471.897,2017-12-10T08:47:59Z
2017-12-10T06:49:33Z,42.805,6.029,13.2985,4.59980,2471.897,2017-12-10T08:51:02Z
2017-12-10T06:52:36Z,42.805,6.029,13.2966,4.59986,2471.897,2017-12-10T08:54:05Z
2017-12-10T06:55:38Z,42.805,6.029,13.2967,4.60018,2471.934,2017-12-10T08:57:08Z
2017-12-10T06:58:41Z,42.805,6.029,13.2970,4.60007,2471.934,2017-12-10T09:00:11Z
2017-12-10T07:01:44Z,42.805,6.029,13.2972,4.59991,2471.919,2017-12-10T09:03:14Z
2017-12-10T07:04:47Z,42.805,6.029,13.2973,4.60001,2471.919,2017-12-10T09:06:17Z
2017-12-10T07:07:50Z,42.805,6.029,13.2982,4.59998,2471.912,2017-12-10T09:09:20Z
2017-12-10T07:10:53Z,42.805,6.029,13.2979,4.59987,2471.912,2017-12-10T09:12:22Z
2017-12-10T07:13:56Z,42.805,6.029,13.2978,4.59989,2471.934,2017-12-10T09:15:25Z
2017-12-10T07:16:59Z,42.805,6.029,13.2977,4.59993,2471.934,2017-12-10T09:18:28Z
2017-12-10T07:20:02Z,42.805,6.029,13.2978,4.59986,2471.912,2017-12-10T09:21:31Z
2017-12-10T07:23:04Z,42.805,6.029,13.2971,4.59983,2471.957,2017-12-10T09:24:34Z
2017-12-10T07:26:07Z,42.805,6.029,13.2968,4.60000,2471.934,2017-12-10T09:27:37Z
2017-12-10T07:29:10Z,42.805,6.029,13.2973,4.59991,2471.919,2017-12-10T09:30:40Z
2017-12-10T07:32:13Z,42.805,6.029,13.2975,4.59996,2471.919,2017-12-10T09:33:43Z
2017-12-10T07:35:16Z,42.805,6.029,13.2993,4.59984,2471.934,2017-12-10T09:36:46Z
2017-12-10T07:38:19Z,42.805,6.029,13.2982,4.59983,2471.934,2017-12-10T09:39:48Z
2017-12-10T07:41:22Z,42.805,6.029,13.2969,4.59991,2471.934,2017-12-10T09:42:51Z
2017-12-10T07:44:25Z,42.805,6.029,13.2972,4.59978,2471.912,2017-12-10T09:45:54Z
2017-12-10T07:47:28Z,42.805,6.029,13.2966,4.59990,2471.934,2017-12-10T09:48:57Z
2017-12-10T07:50:31Z,42.805,6.029,13.2968,4.59989,2471.957,2017-12-10T09:52:00Z
2017-12-10T07:53:33Z,42.805,6.029,13.2979,4.59985,2471.919,2017-12-10T09:55:03Z
2017-12-10T07:56:36Z,42.805,6.029,13.2970,4.59989,2471.934,2017-12-10T09:58:06Z
2017-12-10T07:59:39Z,42.805,6.029,13.2984,4.59984,2471.979,2017-12-10T10:01:09Z
2017-12-10T08:02:42Z,42.805,6.029,13.3013,4.59983,2471.934,2017-12-10T10:04:12Z
2017-12-10T08:05:45Z,42.805,6.029,13.2980,4.59991,2471.942,2017-12-10T10:07:14Z
2017-12-10T08:08:48Z,42.805,6.029,13.2985,4.59983,2471.957,2017-12-10T10:10:17Z
2017-12-10T08:11:51Z,42.805,6.029,13.2971,4.59992,2471.979,2017-12-10T10:13:20Z
2017-12-10T08:14:54Z,42.805,6.029,13.3000,4.59991,2471.934,2017-12-10T10:16:23Z
2017-12-10T08:17:57Z,42.805,6.029,13.2972,4.59988,2471.957,2017-12-10T10:19:26Z
2017-12-10T08:20:59Z,42.805,6.029,13.2991,4.59989,2471.957,2017-12-10T10:22:29Z
2017-12-10T08:24:02Z,42.805,6.029,13.2972,4.59985,2471.957,2017-12-10T10:25:32Z
2017-12-10T08:27:05Z,42.805,6.029,13.2975,4.59998,2471.919,2017-12-10T10:28:35Z
2017-12-10T08:30:08Z,42.805,6.029,13.2971,4.59994,2471.957,2017-12-10T10:31:38Z
2017-12-10T08:33:11Z,42.805,6.029,13.3000,4.59998,2471.934,2017-12-10T10:34:41Z
2017-12-10T08:36:14Z,42.805,6.029,13.2978,4.59998,2471.957,2017-12-10T10:37:43Z
2017-12-10T08:39:17Z,42.805,6.029,13.2975,4.59988,2471.934,2017-12-10T10:40:46Z
2017-12-10T08:42:20Z,42.805,6.029,13.2978,4.59992,2471.979,2017-12-10T10:43:49Z
2017-12-10T08:45:23Z,42.805,6.029,13.2975,4.59985,2471.957,2017-12-10T10:46:52Z
2017-12-10T08:48:26Z,42.805,6.029,13.2978,4.59983,2471.979,2017-12-10T10:49:55Z
2017-12-10T08:51:28Z,42.805,6.029,13.2967,4.59980,2472.016,2017-12-10T10:52:58Z
2017-12-10T08:54:31Z,42.805,6.029,13.2964,4.59990,2471.979,2017-12-10T10:56:01Z
2017-12-10T08:57:34Z,42.805,6.029,13.2966,4.59982,2471.979,2017-12-10T10:59:04Z
2017-12-10T09:00:37Z,42.805,6.029,13.2969,4.59982,2471.979,2017-12-10T11:02:07Z
2017-12-10T09:03:40Z,42.805,6.029,13.2973,4.59985,2472.024,2017-12-10T11:05:10Z
2017-12-10T09:06:43Z,42.805,6.029,13.2961,4.59987,2471.964,2017-12-10T11:08:12Z
2017-12-10T09:09:46Z,42.805,6.029,13.2966,4.59976,2471.979,2017-12-10T11:11:15Z
2017-12-10T09:12:49Z,42.805,6.029,13.2961,4.59980,2471.957,2017-12-10T11:14:18Z
2017-12-10T09:15:52Z,42.805,6.029,13.2965,4.59983,2471.987,2017-12-10T11:17:21Z
2017-12-10T09:18:55Z,42.805,6.029,13.2974,4.59984,2471.987,2017-12-10T11:20:24Z
2017-12-10T09:21:57Z,42.805,6.029,13.2984,4.59999,2471.979,2017-12-10T11:23:27Z
2017-12-10T09:25:00Z,42.805,6.029,13.2989,4.59980,2471.987,2017-12-10T11:26:30Z
2017-12-10T09:28:03Z,42.805,6.029,13.2988,4.59993,2472.002,2017-12-10T11:29:33Z
2017-12-10T09:31:06Z,42.805,6.029,13.2958,4.60003,2472.002,2017-12-10T11:32:36Z
2017-12-10T09:34:09Z,42.805,6.029,13.2954,4.60001,2471.964,2017-12-10T11:35:38Z
2017-12-10T09:37:12Z,42.805,6.029,13.2952,4.59995,2472.01,2017-12-10T11:38:41Z
2017-12-10T09:40:15Z,42.805,6.029,13.2959,4.59994,2472.024,2017-12-10T11:41:44Z
2017-12-10T09:43:18Z,42.805,6.029,13.2943,4.60005,2472.024,2017-12-10T11:44:47Z
2017-12-10T09:46:21Z,42.805,6.029,13.2982,4.60003,2472.002,2017-12-10T11:47:50Z
2017-12-10T09:49:23Z,42.805,6.029,13.2946,4.60021,2471.987,2017-12-10T11:50:53Z
2017-12-10T09:52:26Z,42.805,6.029,13.2954,4.60026,2472.024,2017-12-10T11:53:56Z
2017-12-10T09:55:29Z,42.805,6.029,13.2964,4.60002,2472.032,2017-12-10T11:56:59Z
2017-12-10T09:58:32Z,42.805,6.029,13.2950,4.60008,2472.002,2017-12-10T12:00:02Z
2017-12-10T10:01:35Z,42.805,6.029,13.2958,4.60025,2472.047,2017-12-10T12:03:05Z
2017-12-10T10:04:38Z,42.805,6.029,13.2950,4.60005,2472.024,2017-12-10T12:06:07Z
2017-12-10T10:07:41Z,42.805,6.029,13.2944,4.60007,2472.032,2017-12-10T12:09:10Z
2017-12-10T10:10:44Z,42.805,6.029,13.2940,4.60004,2472.055,2017-12-10T12:12:13Z
2017-12-10T10:13:47Z,42.805,6.029,13.2941,4.59972,2472.024,2017-12-10T12:15:16Z
2017-12-10T10:16:50Z,42.805,6.029,13.2936,4.59971,2472.032,2017-12-10T12:18:19Z
2017-12-10T10:19:52Z,42.805,6.029,13.2933,4.59958,2472.092,2017-12-10T12:21:22Z
2017-12-10T10:22:55Z,42.805,6.029,13.2935,4.59958,2472.047,2017-12-10T12:24:25Z
2017-12-10T10:25:58Z,42.805,6.029,13.2937,4.59956,2472.069,2017-12-10T12:27:28Z
2017-12-10T10:29:01Z,42.805,6.029,13.2935,4.59958,2472.069,2017-12-10T12:30:31Z
2017-12-10T10:32:04Z,42.805,6.029,13.2934,4.59958,2472.047,2017-12-10T12:33:34Z
2017-12-10T10:35:07Z,42.805,6.029,13.2936,4.59957,2472.032,2017-12-10T12:36:36Z
2017-12-10T10:38:10Z,42.805,6.029,13.2940,4.59958,2472.092,2017-12-10T12:39:39Z
2017-12-10T10:41:13Z,42.805,6.029,13.2938,4.59955,2472.069,2017-12-10T12:42:42Z
2017-12-10T10:44:16Z,42.805,6.029,13.2935,4.59956,2472.069,2017-12-10T12:45:45Z
2017-12-10T10:47:19Z,42.805,6.029,13.2936,4.59958,2472.069,2017-12-10T12:48:48Z
2017-12-10T10:50:21Z,42.805,6.029,13.2934,4.59958,2472.092,2017-12-10T12:51:51Z
2017-12-10T10:53:24Z,42.805,6.029,13.2936,4.59957,2472.092,2017-12-10T12:54:54Z
2017-12-10T10:56:27Z,42.805,6.029,13.2935,4.59958,2472.092,2017-12-10T12:57:57Z
2017-12-10T10:59:30Z,42.805,6.029,13.2938,4.59957,2472.092,2017-12-10T13:01:00Z
2017-12-10T11:02:33Z,42.805,6.029,13.2935,4.59956,2472.092,2017-12-10T13:04:03Z
2017-12-10T11:05:36Z,42.805,6.029,13.2941,4.59958,2472.055,2017-12-10T13:07:05Z
2017-12-10T11:08:39Z,42.805,6.029,13.2939,4.59957,2472.092,2017-12-10T13:10:08Z
2017-12-10T11:11:42Z,42.805,6.029,13.2942,4.59955,2472.069,2017-12-10T13:13:11Z
2017-12-10T11:14:45Z,42.805,6.029,13.2936,4.59956,2472.077,2017-12-10T13:16:14Z
2017-12-10T11:17:47Z,42.805,6.029,13.2936,4.59956,2472.115,2017-12-10T13:19:17Z
2017-12-10T11:20:50Z,42.805,6.029,13.2938,4.59956,2472.1,2017-12-10T13:22:20Z
2017-12-10T11:23:53Z,42.805,6.029,13.2934,4.59956,2472.077,2017-12-10T13:25:23Z
2017-12-10T11:26:56Z,42.805,6.029,13.2933,4.59956,2472.092,2017-12-10T13:28:26Z
2017-12-10T11:29:59Z,42.805,6.029,13.2936,4.59956,2472.115,2017-12-10T13:31:29Z
2017-12-10T11:33:02Z,42.805,6.029,13.2937,4.59956,2472.1,2017-12-10T13:34:31Z
2017-12-10T11:36:05Z,42.805,6.029,13.2936,4.59956,2472.077,2017-12-10T13:37:34Z
2017-12-10T11:39:08Z,42.805,6.029,13.2937,4.59957,2472.123,2017-12-10T13:40:37Z
2017-12-10T11:42:11Z,42.805,6.029,13.2937,4.59957,2472.115,2017-12-10T13:43:40Z
2017-12-10T11:45:14Z,42.805,6.029,13.2937,4.59956,2472.115,2017-12-10T13:46:43Z
2017-12-10T11:48:16Z,42.805,6.029,13.2933,4.59956,2472.115,2017-12-10T13:49:46Z
2017-12-10T11:51:19Z,42.805,6.029,13.2939,4.59957,2472.115,2017-12-10T13:52:49Z
2017-12-10T11:54:22Z,42.805,6.029,13.2935,4.59956,2472.092,2017-12-10T13:55:52Z
2017-12-10T11:57:25Z,42.805,6.029,13.2933,4.59957,2472.077,2017-12-10T13:58:55Z
2017-12-10T12:00:28Z,42.805,6.029,13.2932,4.59956,2472.123,2017-12-10T14:01:58Z
2017-12-10T12:03:31Z,42.805,6.029,13.2938,4.59957,2472.115,2017-12-10T14:05:00Z
2017-12-10T12:06:34Z,42.805,6.029,13.2935,4.59955,2472.115,2017-12-10T14:08:03Z
2017-12-10T12:09:37Z,42.805,6.029,13.2933,4.59956,2472.115,2017-12-10T14:11:06Z
2017-12-10T12:12:40Z,42.805,6.029,13.2933,4.59955,2472.1,2017-12-10T14:14:09Z
2017-12-10T12:15:42Z,42.805,6.029,13.2934,4.59955,2472.137,2017-12-10T14:17:12Z
2017-12-10T12:18:45Z,42.805,6.029,13.2935,4.59956,2472.115,2017-12-10T14:20:15Z
2017-12-10T12:21:48Z,42.805,6.029,13.2934,4.59956,2472.115,2017-12-10T14:23:18Z
2017-12-10T12:24:51Z,42.805,6.029,13.2936,4.59956,2472.092,2017-12-10T14:26:21Z
2017-12-10T12:27:54Z,42.805,6.029,13.2936,4.59957,2472.137,2017-12-10T14:29:24Z
2017-12-10T12:30:57Z,42.805,6.029,13.2936,4.59957,2472.129,2017-12-10T14:32:27Z
2017-12-10T12:34:00Z,42.805,6.029,13.2940,4.59957,2472.1,2017-12-10T14:35:29Z
2017-12-10T12:37:03Z,42.805,6.029,13.2940,4.59957,2472.137,2017-12-10T14:38:32Z
2017-12-10T12:40:06Z,42.805,6.029,13.2940,4.59957,2472.1,2017-12-10T14:41:35Z
2017-12-10T12:43:09Z,42.805,6.029,13.2935,4.59957,2472.115,2017-12-10T14:44:38Z
2017-12-10T12:46:11Z,42.805,6.029,13.2940,4.59957,2472.115,2017-12-10T14:47:41Z
2017-12-10T12:49:14Z,42.805,6.029,13.2939,4.59956,2472.092,2017-12-10T14:50:44Z
2017-12-10T12:52:17Z,42.805,6.029,13.2940,4.59958,2472.152,2017-12-10T14:53:47Z
2017-12-10T12:55:20Z,42.805,6.029,13.2935,4.59958,2472.115,2017-12-10T14:56:50Z
2017-12-10T12:58:23Z,42.805,6.029,13.2933,4.59958,2472.137,2017-12-10T14:59:53Z
2017-12-10T13:01:26Z,42.805,6.029,13.2935,4.59959,2472.137,2017-12-10T15:02:56Z
2017-12-10T13:04:29Z,42.805,6.029,13.2936,4.59959,2472.115,2017-12-10T15:05:58Z
2017-12-10T13:07:32Z,42.805,6.029,13.2939,4.59958,2472.123,2017-12-10T15:09:01Z
2017-12-10T13:10:35Z,42.805,6.029,13.2936,4.59958,2472.115,2017-12-10T15:12:04Z
2017-12-10T13:13:38Z,42.805,6.029,13.2938,4.59958,2472.115,2017-12-10T15:15:07Z
2017-12-10T13:16:40Z,42.805,6.029,13.2938,4.59958,2472.115,2017-12-10T15:18:10Z
2017-12-10T13:19:43Z,42.805,6.029,13.2937,4.59957,2472.1,2017-12-10T15:21:13Z
2017-12-10T13:22:46Z,42.805,6.029,13.2939,4.59958,2472.115,2017-12-10T15:24:16Z
2017-12-10T13:25:49Z,42.805,6.029,13.2938,4.59958,2472.092,2017-12-10T15:27:19Z
2017-12-10T13:28:52Z,42.805,6.029,13.2935,4.59960,2472.092,2017-12-10T15:30:22Z
2017-12-10T13:31:55Z,42.805,6.029,13.2938,4.59957,2472.115,2017-12-10T15:33:24Z
2017-12-10T13:34:58Z,42.805,6.029,13.2936,4.59958,2472.092,2017-12-10T15:36:27Z
2017-12-10T13:38:01Z,42.805,6.029,13.2935,4.59957,2472.115,2017-12-10T15:39:30Z
2017-12-10T13:41:04Z,42.805,6.029,13.2938,4.59957,2472.137,2017-12-10T15:42:33Z
2017-12-10T13:44:07Z,42.805,6.029,13.2936,4.59957,2472.1,2017-12-10T15:45:36Z
2017-12-10T13:47:09Z,42.805,6.029,13.2935,4.59955,2472.1,2017-12-10T15:48:39Z
2017-12-10T13:50:12Z,42.805,6.029,13.2936,4.59956,2472.077,2017-12-10T15:51:42Z
2017-12-10T13:53:15Z,42.805,6.029,13.2933,4.59956,2472.1,2017-12-10T15:54:45Z
2017-12-10T13:56:18Z,42.805,6.029,13.2936,4.59958,2472.115,2017-12-10T15:57:48Z
2017-12-10T13:59:21Z,42.805,6.029,13.2937,4.59959,2472.077,2017-12-10T16:00:51Z
2017-12-10T14:02:24Z,42.805,6.029,13.2936,4.59958,2472.077,2017-12-10T16:03:53Z
2017-12-10T14:05:27Z,42.805,6.029,13.2934,4.59958,2472.115,2017-12-10T16:06:56Z
2017-12-10T14:08:30Z,42.805,6.029,13.2937,4.59957,2472.092,2017-12-10T16:09:59Z
2017-12-10T14:11:33Z,42.805,6.029,13.2935,4.59958,2472.092,2017-12-10T16:13:02Z
2017-12-10T14:14:36Z,42.805,6.029,13.2936,4.59957,2472.115,2017-12-10T16:16:05Z
2017-12-10T14:17:38Z,42.805,6.029,13.2940,4.59958,2472.092,2017-12-10T16:19:08Z
2017-12-10T14:20:41Z,42.805,6.029,13.2939,4.59958,2472.077,2017-12-10T16:22:11Z
2017-12-10T14:23:44Z,42.805,6.029,13.2939,4.59958,2472.077,2017-12-10T16:25:14Z
2017-12-10T14:26:47Z,42.805,6.029,13.2935,4.59958,2472.092,2017-12-10T16:28:17Z
2017-12-10T14:29:50Z,42.805,6.029,13.2938,4.59957,2472.069,2017-12-10T16:31:20Z
2017-12-10T14:32:53Z,42.805,6.029,13.2935,4.59958,2472.069,2017-12-10T16:34:22Z
2017-12-10T14:35:56Z,42.805,6.029,13.2933,4.59958,2472.092,2017-12-10T16:37:25Z
2017-12-10T14:38:59Z,42.805,6.029,13.2940,4.59959,2472.077,2017-12-10T16:40:28Z
2017-12-10T14:42:02Z,42.805,6.029,13.2935,4.59959,2472.092,2017-12-10T16:43:31Z
2017-12-10T14:45:04Z,42.805,6.029,13.2938,4.59958,2472.055,2017-12-10T16:46:34Z
2017-12-10T14:48:07Z,42.805,6.029,13.2939,4.59958,2472.092,2017-12-10T16:49:37Z
2017-12-10T14:51:10Z,42.805,6.029,13.2936,4.59958,2472.092,2017-12-10T16:52:40Z
2017-12-10T14:54:13Z,42.805,6.029,13.2936,4.59958,2472.092,2017-12-10T16:55:43Z
2017-12-10T14:57:16Z,42.805,6.029,13.2934,4.59958,2472.115,2017-12-10T16:58:46Z